Temp
24 22 21 21 20 20 21 21 21 22 22 22 22 22 22 22 22 22 22 22 21 20 20 20 20 21 21 21 20 20 20 19 19 19 19 19 20 20 20 20 20 20 20 21 21 21 20 20 19 19 19 19 19 18 18 18 18 18 18 18 18 18 18 18 18 18 17 17 17 17 17 17 17 17 17 17 17 17 17 17 18 18 18 17 17
23 21 21 21 20 20 21 21 21 22 22 22 22 22 22 22 22 22 22 22 21 20 20 20 20 21 21 21 20 20 20 19 19 19 19 19 20 20 20 20 20 20 20 20 20 20 20 19 19 19 19 18 18 18 18 18 18 18 18 18 18 18 18 18 17 17 17 17 17 17 17 17 17 17 16 16 17 17 17 18 18 18 17 17 17
23 21 21 20 20 20 21 21 21 21 21 22 22 22 22 22 22 22 22 22 21 20 20 20 20 20 20 20 20 20 19 19 19 19 19 20 19 20 20 19 20 20 19 19 19 19 19 19 19 19 18 18 18 18 18 18 18 18 18 18 18 18 17 17 17 17 17 17 17 17 17 17 17 17 16 16 16 16 17 17 17 17 17 16 17
23 21 21 21 20 20 20 21 21 21 21 21 21 22 21 21 22 22 22 21 21 20 20 20 20 20 20 20 20 20 19 19 19 19 19 19 19 19 20 19 20 20 20 19 19 19 19 19 19 18 18 18 18 18 18 18 18 18 18 18 18 18 17 17 17 17 17 17 17 18 18 17 17 17 16 16 16 16 16 16 16 17 16 16 16
23 21 21 21 20 20 20 21 21 21 21 21 21 21 21 21 21 21 21 21 21 20 20 20 20 20 20 20 19 19 19 19 19 19 19 19 19 20 20 20 20 20 20 19 19 19 19 19 19 18 18 18 18 18 18 18 18 18 18 18 18 18 17 17 17 17 17 17 18 19 20 19 18 17 17 16 16 16 16 16 16 16 16 16 16
23 21 20 21 20 20 20 20 21 21 21 21 21 21 21 21 21 21 21 21 21 20 20 20 20 20 20 20 20 20 19 19 19 19 19 19 20 20 20 20 20 19 19 19 19 19 19 19 19 19 18 18 18 18 18 18 18 18 18 18 18 17 17 17 17 17 17 18 19 20 20 19 18 17 16 16 16 16 16 16 16 16 16 17 16
22 21 20 20 20 20 20 20 21 21 21 21 21 21 21 21 21 21 21 20 20 20 20 20 20 19 19 19 20 20 19 19 19 19 19 19 19 19 20 20 20 19 19 19 19 19 19 19 19 19 18 18 18 18 17 17 18 18 17 17 17 17 17 17 17 17 18 19 20 21 20 20 19 18 16 16 16 16 16 16 16 16 16 17 17
22 22 21 20 20 20 20 20 20 21 21 21 21 21 21 21 21 21 21 20 20 19 19 19 19 19 19 19 19 19 19 19 19 19 19 19 19 19 19 19 19 19 18 18 18 18 19 19 19 19 18 18 18 17 17 17 17 17 17 17 17 17 17 17 17 18 18 19 20 20 21 20 19 18 17 17 16 16 16 16 16 16 16 17 17
23 22 21 20 20 20 20 20 20 20 21 21 21 21 21 21 21 21 21 20 20 19 19 19 19 19 19 19 20 20 19 19 19 19 19 19 19 19 19 19 19 19 18 18 18 18 19 19 19 18 18 18 17 17 17 17 17 17 17 17 17 17 17 17 17 18 19 20 20 20 21 20 20 18 17 16 16 16 16 17 16 16 16 17 17
23 22 22 21 20 20 20 20 20 20 21 21 21 21 21 21 21 21 21 20 20 20 20 20 19 20 20 20 20 20 19 19 19 19 19 19 19 19 19 19 19 19 18 18 18 18 18 19 18 18 18 17 17 17 17 17 17 17 17 17 17 17 17 17 17 18 20 20 20 20 20 20 20 18 17 16 16 16 16 17 17 16 16 16 16
22 22 22 21 20 20 20 20 20 20 20 21 21 21 21 21 21 21 20 20 20 20 20 20 20 20 19 20 20 19 19 19 19 19 19 19 19 19 19 19 19 19 19 18 18 18 18 18 18 18 17 17 17 17 17 17 17 17 17 17 17 17 17 17 18 19 20 20 20 19 19 19 19 18 16 16 15 16 16 16 16 16 16 16 16
22 22 22 21 20 20 20 20 20 20 20 20 21 21 21 21 21 20 20 20 20 20 20 20 20 19 19 19 19 19 19 19 19 19 19 19 19 19 19 19 19 19 19 18 18 18 18 18 18 17 17 17 17 17 17 17 17 17 17 17 17 17 17 18 19 20 20 20 20 19 20 20 19 17 16 16 16 16 16 16 16 16 16 16 16
22 22 21 20 20 20 19 20 19 19 20 20 20 21 21 21 20 20 20 20 20 20 20 20 20 20 19 19 19 19 19 19 19 19 19 19 19 19 19 19 19 19 19 18 18 18 18 18 18 17 17 18 18 17 17 17 17 17 17 17 17 17 17 18 19 20 20 20 20 19 20 19 18 16 16 16 16 16 16 16 16 16 16 16 15
22 22 21 20 20 20 19 20 20 19 19 20 20 20 21 21 20 20 20 20 20 20 20 20 20 20 19 19 19 19 19 19 19 19 19 19 19 19 19 19 19 19 18 18 18 18 18 18 17 17 17 17 18 17 17 17 17 17 17 17 17 17 18 18 19 20 20 20 20 20 20 19 17 16 16 16 16 16 16 15 16 16 15 16 15
22 22 21 21 20 20 20 19 19 20 20 20 20 20 20 20 20 20 20 20 20 20 20 20 20 20 20 19 19 19 19 19 19 19 19 19 19 19 18 19 19 19 18 18 18 18 18 18 17 17 17 17 18 17 17 17 17 17 17 18 17 17 18 19 20 20 20 20 19 19 20 19 17 16 16 16 16 16 15 15 15 15 15 15 15
22 21 21 21 20 20 20 19 19 20 20 19 19 20 20 20 20 20 20 20 20 20 20 20 19 20 20 19 19 19 19 19 19 19 19 19 19 19 18 18 18 19 18 18 18 18 18 18 17 17 17 17 17 17 18 18 18 18 18 18 18 18 18 19 20 20 20 20 19 19 20 18 16 16 16 16 16 15 15 15 15 15 15 15 15
22 22 21 21 21 20 20 20 19 19 19 19 19 19 19 19 20 20 20 19 20 20 19 19 19 19 19 19 19 19 19 19 19 19 19 19 19 19 18 18 18 18 18 18 18 18 18 18 17 17 17 17 17 17 18 18 18 19 18 18 18 18 18 19 20 20 20 19 19 20 19 18 16 16 16 16 15 15 15 15 15 15 15 15 15
22 22 22 21 21 21 20 20 19 19 19 19 19 19 18 19 20 20 19 19 19 19 19 19 19 19 19 19 19 19 19 19 19 19 19 19 19 18 18 18 18 18 18 18 18 18 18 17 17 17 17 17 17 18 18 18 18 19 19 19 19 18 18 18 19 20 20 19 19 20 19 18 16 16 16 15 15 15 15 15 15 15 15 15 15
22 22 22 21 21 21 21 20 20 19 19 19 19 19 18 19 19 19 19 19 19 19 19 19 19 19 19 19 19 19 18 18 18 18 19 19 19 18 18 18 18 18 18 18 18 18 17 17 17 18 18 17 17 17 18 18 18 19 19 19 19 18 18 18 20 20 19 19 20 20 18 17 16 16 16 15 15 15 15 15 15 15 15 15 15
22 21 22 21 22 21 21 20 20 20 19 19 19 19 19 19 19 19 19 19 19 19 19 19 18 18 18 18 18 18 18 18 18 18 18 18 19 18 18 18 18 18 18 18 18 17 17 17 18 18 18 18 18 17 18 18 18 19 19 19 19 19 18 19 20 20 20 19 19 19 18 16 16 16 16 16 15 15 15 15 15 15 15 15 15
21 21 21 21 21 21 21 21 20 20 19 19 19 18 19 19 19 19 19 19 19 19 18 18 18 18 18 18 18 18 18 18 18 18 18 18 18 18 19 18 18 18 18 17 17 17 17 18 18 18 18 18 18 18 18 18 18 19 19 19 19 19 19 19 20 20 20 19 19 19 17 16 16 16 16 16 15 15 15 15 15 15 15 15 14
21 21 21 21 21 21 21 21 20 20 20 19 19 18 19 19 18 18 18 19 19 19 18 18 18 18 18 18 18 18 18 18 18 18 17 18 18 18 19 18 18 18 18 18 17 17 17 17 18 18 18 18 18 18 18 19 18 19 19 19 19 19 19 19 19 20 20 20 19 19 17 16 16 16 16 16 15 15 15 14 15 15 15 14 14
21 21 21 21 21 21 21 21 21 20 20 20 19 19 18 18 18 18 18 18 18 18 18 18 18 18 18 18 18 18 18 18 18 18 17 18 18 18 18 18 18 18 18 18 17 17 17 17 17 18 18 18 18 19 19 19 19 19 19 19 19 19 19 19 19 20 20 20 19 18 17 16 16 16 16 16 15 15 15 14 14 15 14 14 14
21 21 21 21 21 21 21 21 21 20 20 20 20 19 18 18 18 18 18 18 18 18 18 18 18 19 18 18 18 18 18 18 18 18 17 18 18 17 18 18 18 18 18 18 18 17 17 17 17 17 18 18 19 19 20 20 19 19 19 19 19 19 19 19 19 20 20 20 19 18 17 16 16 16 16 16 15 15 15 14 14 14 14 14 14
21 21 21 21 21 21 21 21 21 20 20 20 20 19 19 18 18 18 18 18 18 18 18 18 18 19 19 19 19 18 18 19 18 18 18 18 18 18 18 18 18 18 18 18 18 18 18 17 17 17 18 18 19 19 20 20 19 19 20 20 19 19 19 19 19 19 20 19 19 18 17 16 16 16 16 16 15 15 15 14 14 14 14 14 14
22 22 21 21 21 21 21 21 21 21 20 20 20 19 19 18 18 18 18 18 18 18 18 18 19 19 18 19 18 18 18 18 18 18 18 18 19 18 19 19 18 19 18 18 19 18 18 18 17 17 17 18 18 18 19 19 19 20 20 20 19 19 19 19 19 19 20 19 19 18 17 17 16 16 16 16 15 15 15 14 14 14 14 14 14
22 22 21 21 21 21 21 21 21 20 20 20 20 19 19 19 18 18 18 18 18 18 19 19 19 18 18 19 18 18 18 18 19 19 19 19 19 19 19 19 19 19 19 18 19 18 19 19 18 17 17 17 18 18 18 19 19 19 20 20 20 19 19 19 19 19 19 19 19 18 17 17 16 16 16 16 16 15 15 15 14 14 14 14 14
22 22 21 21 21 21 21 21 20 20 20 20 20 19 19 19 18 18 19 18 18 18 19 19 19 18 18 18 18 18 18 18 19 19 19 19 19 19 19 19 19 19 18 18 19 18 19 19 18 17 17 18 18 18 19 19 19 19 20 20 20 20 19 19 19 19 19 19 19 19 18 17 17 16 16 16 16 15 15 15 15 14 14 14 14
22 21 21 21 21 21 21 20 20 20 20 20 20 19 19 19 18 19 19 18 18 18 18 18 18 18 18 18 18 18 17 18 18 19 19 18 18 18 18 18 18 18 18 18 18 18 18 19 18 18 17 18 18 19 19 20 19 19 20 20 20 20 20 19 19 19 19 20 19 19 18 17 17 16 16 16 16 16 15 15 15 14 14 14 14
21 20 20 21 20 20 20 20 20 20 20 19 19 19 19 19 19 19 19 18 19 18 17 17 18 18 17 17 17 17 17 18 18 18 18 18 17 17 17 17 17 17 17 17 17 17 18 18 18 18 18 18 18 19 19 19 20 20 20 20 20 20 20 20 20 20 20 20 20 19 18 18 17 17 16 16 16 16 15 15 15 15 14 14 14
21 20 21 21 20 20 20 20 20 19 19 19 19 18 19 19 19 19 18 19 18 17 17 17 17 17 17 17 17 17 17 17 18 17 17 17 17 17 17 17 17 17 17 17 17 17 18 17 18 18 19 19 18 18 19 19 20 20 20 20 20 20 20 20 20 20 20 20 20 19 19 18 18 17 16 16 16 16 16 15 15 15 15 14 14
21 20 21 20 20 20 20 20 19 18 18 19 19 18 19 19 19 19 18 18 17 17 17 17 17 17 17 17 17 16 17 17 17 17 16 16 16 16 16 16 16 16 16 17 17 17 17 16 17 17 18 18 17 17 18 19 20 20 21 20 20 20 20 20 20 20 20 20 20 20 19 19 18 18 17 17 16 16 16 16 15 15 15 15 15
21 20 20 20 19 19 19 19 18 18 18 18 19 19 19 19 19 19 18 17 17 17 17 16 17 16 16 16 16 16 16 17 17 16 16 16 16 17 16 16 16 16 17 17 16 17 17 17 17 17 17 17 17 17 17 18 19 20 20 20 20 20 21 20 20 20 20 20 21 20 20 19 19 18 18 17 17 16 16 16 16 16 15 15 15
21 20 19 19 19 19 18 18 18 18 18 18 18 19 19 18 19 19 18 17 17 17 17 17 16 16 16 16 16 16 16 17 16 16 16 16 16 16 16 16 16 16 17 16 16 16 17 17 18 17 17 17 17 17 17 18 18 19 19 20 20 20 21 21 20 20 20 20 21 20 20 20 19 19 18 18 18 17 17 16 16 16 16 15 15
21 20 19 19 18 18 18 18 17 17 17 17 18 18 18 18 19 18 18 18 18 17 17 17 17 17 17 16 16 16 17 17 16 16 16 16 17 16 16 16 16 16 16 16 16 16 17 17 18 18 18 17 18 17 17 17 17 18 19 19 20 20 20 21 21 21 20 20 20 20 20 20 20 20 19 18 18 18 17 17 16 16 16 15 15
21 20 19 18 18 18 17 17 17 17 18 17 18 18 17 18 18 18 17 17 18 18 18 18 18 18 17 17 16 16 16 16 16 16 16 16 17 16 16 16 16 16 16 16 16 16 17 17 17 18 18 18 18 18 18 18 17 17 18 18 19 19 20 20 20 21 21 21 21 20 20 20 20 19 19 19 18 18 18 18 17 16 16 16 15
20 20 19 18 18 18 17 17 17 18 18 18 17 17 17 17 18 17 17 17 18 18 18 18 18 18 17 17 16 16 16 16 16 16 16 16 16 16 16 16 16 16 16 16 16 16 17 17 17 17 17 18 18 18 17 18 17 17 18 18 18 19 19 20 20 20 21 21 20 21 20 20 20 19 19 19 19 19 18 18 18 18 17 16 16
19 19 19 19 18 18 18 18 18 18 18 17 17 17 17 17 17 17 17 17 18 18 18 18 18 18 17 17 17 16 16 16 16 16 16 16 16 16 16 16 16 16 16 16 16 16 17 17 17 17 17 18 18 18 17 17 17 18 18 18 18 18 19 19 20 20 21 21 20 21 21 20 20 20 19 19 19 19 19 18 18 18 18 17 16
18 18 18 19 19 18 18 18 18 18 17 17 17 17 17 17 18 17 17 18 18 18 17 17 17 17 17 16 16 16 16 16 16 16 17 17 17 16 16 16 16 16 16 16 16 17 16 16 17 17 17 17 18 17 17 17 17 18 18 18 18 18 19 19 19 20 20 20 21 21 21 20 20 20 20 19 19 19 19 19 18 18 18 18 17
18 18 18 18 18 18 18 18 17 17 17 17 18 18 18 18 18 18 18 18 18 18 17 17 17 17 17 16 16 16 16 16 16 16 17 17 17 17 16 16 16 16 16 16 16 16 16 16 16 16 16 16 16 16 16 16 16 17 17 18 18 19 19 19 19 20 20 20 21 21 21 21 20 20 20 20 20 20 19 19 19 19 19 19 18
18 18 18 18 19 19 19 18 18 17 18 18 19 19 19 19 19 19 19 18 18 18 17 17 17 16 16 16 16 16 16 16 16 16 16 16 17 17 16 16 16 16 16 16 16 16 16 16 16 16 16 16 16 16 16 16 16 16 17 17 17 17 18 18 19 20 20 20 20 20 20 20 21 21 20 20 20 20 20 20 19 19 20 19 19
18 18 18 19 19 19 19 18 18 18 18 19 19 19 19 19 19 19 19 19 18 18 18 17 16 16 15 16 16 16 16 15 16 16 16 16 16 17 17 16 16 16 16 15 15 16 15 15 16 16 16 16 16 16 16 16 16 16 16 16 16 16 17 18 19 19 20 20 20 20 20 20 20 21 21 20 20 20 20 20 20 20 20 20 19
18 18 18 19 19 19 19 18 18 18 18 18 19 19 18 18 19 19 19 18 18 17 17 16 16 16 15 15 15 15 15 16 16 16 16 16 16 17 17 16 16 16 16 16 15 15 15 15 16 16 16 15 15 15 16 16 16 16 15 16 16 16 16 16 17 19 19 19 20 20 20 20 20 21 21 20 20 20 20 20 20 20 19 20 20
19 18 18 18 19 19 19 18 18 18 18 18 18 18 18 17 17 17 17 18 17 16 16 16 16 16 15 15 15 15 15 16 16 16 16 16 16 16 16 16 16 16 16 16 16 16 16 15 15 16 16 16 16 15 15 15 15 15 15 16 15 16 16 15 16 18 19 19 20 20 20 20 20 20 20 20 20 20 20 20 20 20 19 19 19
19 19 18 18 19 19 19 18 18 18 18 18 17 17 17 17 17 17 17 17 17 17 17 17 16 16 16 15 15 15 15 15 16 16 16 16 15 16 16 16 16 16 16 16 16 16 16 16 16 15 16 16 16 16 15 15 15 15 15 16 16 16 16 16 16 17 17 18 19 19 20 20 20 20 20 20 20 20 20 19 19 19 19 19 19
19 19 18 18 19 19 19 18 18 18 18 17 17 17 17 17 17 18 18 18 18 18 18 17 17 17 16 15 15 15 15 15 15 16 16 15 15 15 15 16 16 16 16 16 16 16 16 16 16 16 16 16 16 16 15 15 15 15 15 15 15 16 16 15 16 16 16 16 17 17 18 18 19 19 20 20 20 20 19 19 19 19 19 19 19
19 19 18 18 19 19 18 18 18 18 18 17 17 17 18 18 18 18 19 19 19 18 18 17 17 17 16 15 15 15 15 15 15 15 15 15 15 15 15 15 15 15 15 15 15 15 15 15 15 16 16 16 16 16 16 15 15 14 14 14 14 15 15 15 16 16 16 16 16 16 16 17 17 18 18 19 20 19 19 19 19 19 19 19 19
19 18 18 18 19 19 18 18 19 18 18 17 17 17 18 18 18 19 19 19 19 18 17 17 17 16 16 15 15 15 15 15 15 15 15 15 15 15 15 15 15 15 15 15 15 15 15 14 14 15 15 15 16 16 16 16 16 15 15 15 15 15 15 15 15 15 16 16 16 16 16 16 16 16 17 17 18 18 18 18 18 19 19 19 19
19 18 18 18 18 18 18 18 18 18 18 17 17 17 18 18 18 19 19 19 19 18 18 17 16 16 16 16 16 15 15 15 15 15 15 15 15 14 14 15 15 15 15 15 14 14 14 14 14 14 14 14 14 15 16 16 16 15 15 15 15 16 16 15 15 16 16 16 16 16 15 15 15 16 16 16 16 16 17 17 17 18 18 18 19
19 18 18 18 18 18 18 18 18 18 18 17 17 17 18 18 18 19 19 19 18 18 18 17 17 16 16 16 16 16 15 15 15 15 15 15 15 14 14 14 14 15 15 14 14 14 13 13 13 13 13 14 14 14 14 15 15 15 15 16 16 16 17 17 16 16 17 17 17 17 16 16 15 15 16 15 15 15 16 16 16 17 17 18 18
18 18 18 18 18 18 18 18 18 18 18 17 17 17 17 18 18 18 18 18 18 18 18 17 17 17 16 16 16 16 16 15 15 15 15 15 14 14 14 14 14 14 14 14 14 14 13 13 13 13 13 13 13 13 13 13 14 14 14 15 15 15 16 17 16 16 16 17 17 18 18 18 17 17 16 16 16 15 15 16 16 16 17 17 18
Height
785 787 788 790 792 794 796 797 799 800 801 802 803 803 804 805 805 805 806 806 807 808 809 810 811 812 813 814 815 815 816 817 818 819 820 820 821 822 823 824 824 824 825 825 825 825 826 826 826 827 827 827 827 827 828 828 829 829 830 830 831 831 831 831 832 832 832 833 833 833 833 832 832 832 832 832 832 832 833 833 833 833 833 834 834
784 787 788 791 793 795 797 798 800 801 802 803 804 804 805 806 806 806 807 808 808 809 810 811 812 813 814 814 815 816 817 818 819 820 821 821 822 823 824 824 825 825 826 826 826 826 827 827 827 827 828 828 828 829 829 830 830 831 831 831 832 832 832 833 833 833 834 834 834 834 834 834 834 833 833 833 833 833 834 834 834 834 834 834 834
785 788 789 791 794 795 797 799 801 802 803 804 805 805 806 807 807 808 808 809 809 810 811 811 812 813 814 815 816 817 818 819 820 821 822 822 823 824 824 825 825 826 826 827 827 828 828 828 828 828 829 829 830 830 830 831 831 832 832 832 833 833 833 834 834 834 835 835 835 835 835 836 835 835 835 834 834 834 834 834 834 834 835 835 835
786 788 789 792 794 796 798 800 802 803 804 804 806 806 807 808 808 809 809 810 810 811 811 812 813 814 815 816 817 818 819 820 821 822 823 823 824 825 825 826 826 827 827 828 828 828 828 829 829 829 830 830 831 831 831 832 832 833 833 833 834 834 835 835 835 835 836 836 836 836 837 837 837 837 836 836 835 835 834 834 834 835 835 836 835
786 788 790 793 795 797 799 801 802 804 805 805 806 808 809 809 809 810 810 811 811 812 812 813 814 815 816 817 818 819 820 821 822 822 823 824 825 826 826 827 827 828 828 829 829 829 829 829 830 831 831 831 832 832 833 833 833 833 834 834 835 835 835 836 836 836 837 837 837 838 840 839 839 838 838 837 837 836 835 835 835 835 836 836 836
786 788 790 793 796 797 799 801 803 804 805 806 807 809 809 810 810 811 811 812 812 813 814 815 815 816 817 818 819 820 821 821 822 823 824 825 826 826 827 828 828 828 829 830 830 830 830 831 831 831 832 832 833 833 833 834 834 834 835 835 835 836 836 837 837 837 837 837 838 839 841 840 840 840 839 839 838 838 837 837 837 837 837 837 837
787 789 792 794 796 798 800 802 803 805 805 806 808 809 810 811 811 812 813 813 814 814 815 816 817 818 818 819 820 821 822 822 823 824 825 826 826 827 828 828 828 829 830 830 831 831 831 831 832 832 832 833 833 834 834 835 835 835 835 836 836 836 837 837 837 838 838 838 840 841 841 841 841 841 840 840 839 839 839 838 838 838 838 838 838
788 790 792 795 797 798 800 802 804 805 806 807 808 810 811 812 813 813 814 814 815 816 817 817 818 819 820 820 821 822 823 823 824 824 825 826 827 828 828 828 829 829 830 831 831 832 832 832 832 833 833 834 834 834 835 835 836 836 836 836 837 837 837 838 838 839 838 840 841 841 841 842 842 841 841 841 841 840 840 840 839 839 839 840 839
789 791 793 795 797 798 801 802 804 806 806 807 808 810 811 813 813 814 815 816 816 817 818 819 820 820 821 821 822 823 823 824 825 826 826 827 828 828 829 829 829 830 830 831 832 832 832 833 833 833 834 834 834 835 835 836 836 837 837 837 837 838 838 839 839 840 840 841 842 842 842 842 842 842 842 842 842 841 841 841 841 841 840 841 840
790 792 794 795 797 799 801 803 804 806 807 808 809 810 812 813 814 815 816 817 818 818 819 820 820 821 822 822 823 824 824 825 826 827 827 828 829 829 829 829 830 830 831 831 832 832 833 833 834 834 834 834 835 835 836 836 837 837 838 838 838 838 839 839 840 840 842 843 842 843 842 842 843 843 843 842 842 842 842 842 841 842 841 841 841
790 793 795 796 797 799 801 803 805 806 808 809 810 811 812 813 814 816 817 817 818 819 820 820 821 822 822 823 824 825 825 826 827 827 828 829 829 830 830 830 830 831 831 832 832 833 833 834 834 834 834 834 835 836 836 837 837 838 838 838 839 839 840 840 840 842 843 843 843 843 843 843 843 844 844 843 843 843 843 843 842 842 842 842 842
791 794 795 797 798 800 802 803 805 807 809 810 811 811 813 814 815 816 817 818 818 819 820 821 821 822 823 824 825 825 826 827 827 828 829 829 830 830 831 831 831 831 832 832 833 833 834 834 834 835 835 835 836 836 837 837 838 839 839 839 839 840 841 841 841 843 844 844 844 844 844 844 844 844 844 844 844 844 844 844 844 844 843 843 843
792 795 796 798 798 801 802 804 806 807 809 810 811 812 813 814 816 816 817 818 819 819 820 821 822 823 824 824 825 826 827 827 828 829 829 830 830 831 831 832 832 832 832 833 833 834 834 835 835 836 836 836 836 837 838 838 839 840 840 840 840 841 841 841 842 844 844 844 844 845 845 845 845 845 845 845 845 845 845 845 845 845 844 844 844
793 795 797 798 799 801 803 805 806 807 809 810 812 813 814 815 816 817 818 819 819 820 820 822 822 823 824 824 825 826 827 827 828 829 830 830 831 831 832 832 832 833 833 833 834 835 835 836 836 837 837 837 837 838 839 839 840 840 841 841 841 841 842 842 843 844 845 845 845 845 846 846 846 846 846 846 846 846 846 846 846 846 845 845 845
794 796 798 799 800 802 803 805 806 808 809 810 813 814 815 816 817 817 818 819 820 821 821 822 823 823 824 825 825 826 827 828 829 830 830 831 831 832 832 833 833 834 834 834 835 835 836 837 837 837 838 838 838 839 840 840 841 841 842 842 842 842 842 843 844 845 845 845 845 846 846 846 846 846 847 847 847 847 846 846 847 847 846 846 846
795 796 798 799 801 802 804 806 807 808 809 811 814 815 816 817 818 817 818 820 820 821 822 823 823 823 824 825 826 826 827 828 829 830 831 831 832 832 833 834 834 835 835 835 835 836 837 837 838 838 839 839 840 840 841 841 841 842 842 842 842 842 842 843 845 845 845 846 846 846 846 846 846 847 847 847 847 847 847 847 847 847 847 847 847
796 798 799 800 801 803 804 806 807 808 810 812 814 815 817 818 818 817 819 820 820 821 822 823 823 824 824 825 826 827 828 828 829 830 831 832 832 833 833 834 835 835 835 836 836 836 837 838 838 839 839 840 841 841 841 842 842 842 842 842 842 843 843 842 844 845 845 846 846 846 847 846 846 847 848 848 848 848 848 848 848 848 848 848 848
797 799 800 801 802 803 804 806 807 808 810 812 813 814 816 817 816 817 819 820 820 821 822 823 824 824 825 825 826 827 828 829 830 830 831 832 832 833 834 835 835 836 836 836 837 837 838 838 839 839 840 840 841 842 842 842 842 843 843 843 843 843 844 843 844 846 846 846 846 847 847 846 847 847 848 848 848 848 848 848 848 849 849 849 849
798 799 800 802 802 804 804 806 807 808 809 812 813 814 815 815 816 818 819 820 820 821 822 823 824 825 825 826 827 827 828 829 830 831 831 832 833 834 834 835 835 836 836 837 837 837 838 838 839 840 840 841 841 842 842 842 843 843 843 843 843 843 844 844 845 846 846 846 847 847 846 846 847 848 848 848 848 849 849 849 849 849 849 849 849
799 800 801 802 803 804 805 806 807 808 809 810 813 813 814 814 816 818 818 820 820 821 821 822 824 825 825 826 827 828 829 829 830 831 831 832 833 834 835 835 836 836 837 837 838 838 838 839 840 840 840 841 841 842 842 842 843 843 843 843 844 844 844 844 845 846 846 847 847 847 846 846 847 848 848 848 849 849 849 849 849 849 850 850 850
800 800 801 802 803 804 805 806 807 808 808 810 812 813 814 814 816 817 818 819 820 820 821 822 824 824 825 826 827 828 829 829 830 831 831 832 833 834 835 835 836 836 837 837 838 838 838 839 840 840 841 841 841 842 842 843 843 843 843 843 844 844 845 845 846 846 846 847 847 847 847 847 848 848 848 849 849 849 849 849 849 850 850 850 850
799 800 802 802 803 805 805 806 807 808 809 810 811 812 814 815 817 817 818 819 820 821 821 823 824 824 825 825 827 828 828 829 830 831 831 832 833 834 835 835 836 836 837 837 838 838 838 839 839 840 841 841 841 842 843 843 843 843 843 843 844 844 845 845 846 846 847 847 848 847 847 847 848 848 849 849 849 849 849 849 850 850 850 850 850
799 800 802 803 804 805 805 807 807 808 809 810 811 812 813 815 817 817 818 819 820 821 822 823 823 824 825 825 826 826 827 827 828 830 831 832 833 834 835 835 836 836 837 837 838 838 838 838 839 840 840 841 842 842 843 843 843 843 843 843 844 844 844 845 846 846 847 847 848 847 847 848 848 849 849 850 850 850 850 850 850 850 850 850 851
799 800 802 803 804 805 806 807 807 808 809 810 811 812 813 814 816 817 818 819 820 821 822 823 823 824 824 825 825 825 825 826 827 829 830 831 832 834 834 834 835 836 836 837 837 837 837 838 838 839 840 841 842 842 842 843 843 843 843 843 844 844 844 845 846 846 847 848 847 847 848 848 848 849 850 850 850 850 850 850 850 850 850 850 851
798 800 802 804 804 805 806 807 808 809 809 811 812 812 813 814 815 817 818 819 820 821 822 823 823 823 823 824 825 825 826 826 828 829 830 831 832 833 833 834 835 835 836 836 837 836 836 837 838 839 840 840 841 841 842 842 843 843 843 843 844 844 844 845 846 846 846 847 847 847 848 848 848 849 850 850 851 851 850 851 850 850 850 850 850
798 800 801 803 804 805 806 807 808 809 810 811 812 813 813 815 816 817 818 819 820 821 822 822 823 823 823 823 825 826 826 827 828 829 829 831 832 832 833 833 834 835 835 836 836 836 836 837 837 838 839 840 840 841 842 842 843 843 843 843 843 844 844 845 846 846 846 847 847 847 848 848 848 849 850 851 851 851 851 851 851 850 850 850 850
798 799 801 803 804 805 806 807 808 809 810 811 812 813 814 815 816 817 818 819 819 820 821 822 822 823 824 824 825 826 827 828 828 828 829 830 830 831 832 832 833 834 834 835 835 836 836 836 837 838 838 839 840 840 841 842 842 842 843 843 843 844 844 845 846 846 846 847 847 847 848 848 848 849 850 851 851 851 851 851 851 850 850 850 850
797 799 801 803 804 805 806 807 809 809 810 811 812 813 814 814 815 817 818 818 819 820 821 822 822 823 824 825 825 826 827 828 828 828 828 829 830 830 830 831 832 833 833 834 834 835 835 836 837 837 837 838 839 840 840 841 842 842 842 843 843 843 844 845 845 846 846 847 846 847 847 848 848 849 850 851 851 851 851 851 851 851 850 850 850
798 800 802 803 804 805 806 808 809 809 810 811 812 812 813 814 815 816 817 818 819 820 820 821 822 823 823 824 825 827 827 828 827 827 828 829 829 829 829 830 831 832 832 833 833 834 834 835 836 837 837 838 838 839 839 840 841 842 842 842 843 843 843 844 845 846 846 846 846 846 847 848 848 849 849 850 851 851 851 851 851 851 850 850 850
798 800 802 803 804 805 806 808 809 810 810 811 812 812 813 814 815 816 817 818 819 820 820 821 821 822 823 824 825 826 826 826 825 825 827 828 828 828 829 830 831 831 832 833 833 833 834 834 835 836 836 837 838 838 839 839 839 840 841 842 842 843 843 843 844 845 845 846 846 846 846 847 848 848 849 849 850 850 850 851 851 851 850 850 850
798 800 802 803 804 806 807 808 809 810 811 812 812 812 813 814 814 815 817 817 818 819 819 820 821 821 822 823 824 824 825 825 825 825 826 827 827 827 828 830 830 831 831 832 833 833 834 834 835 836 835 836 837 838 838 838 838 838 840 841 841 842 843 843 844 844 845 845 845 846 846 846 847 847 848 848 849 850 850 850 850 850 850 850 850
798 800 802 803 805 806 807 809 809 810 811 812 812 813 814 814 814 815 816 817 818 818 819 820 821 821 822 822 823 824 825 825 825 826 826 827 827 826 827 828 829 830 829 830 831 832 833 833 834 835 834 835 837 838 838 837 837 837 838 839 840 841 842 842 843 843 844 844 844 845 845 845 846 846 847 847 848 849 849 850 850 850 850 850 850
798 800 801 803 805 806 807 808 809 810 811 812 812 813 814 814 815 815 816 816 817 818 819 820 820 822 822 822 824 824 824 824 824 826 826 826 826 825 826 827 828 828 827 829 830 831 833 833 834 835 834 835 836 837 837 837 836 836 836 838 839 840 840 841 842 842 843 843 843 844 845 845 845 845 846 846 847 847 848 849 849 850 850 850 850
797 800 801 803 805 806 807 808 809 810 811 812 812 813 813 814 814 815 815 816 816 817 818 820 820 821 822 822 823 824 824 823 823 825 826 826 825 825 826 826 826 826 826 827 829 830 831 832 833 833 833 834 835 836 836 836 836 836 836 836 837 838 839 839 840 841 842 842 842 843 844 844 844 845 845 845 846 846 847 847 848 849 849 850 850
797 799 801 803 804 806 807 808 809 810 811 812 812 813 813 814 814 815 815 816 817 817 818 819 820 820 821 822 823 823 823 822 823 824 825 825 825 824 825 825 825 825 825 826 827 828 830 831 831 832 832 833 833 834 834 835 835 835 835 836 836 837 837 838 839 840 840 841 842 842 842 843 843 844 844 844 844 845 845 846 847 848 848 849 849
797 799 801 802 804 806 807 808 809 810 811 812 813 813 813 814 815 815 815 816 817 818 819 819 819 820 821 822 822 822 822 822 822 823 824 824 824 824 823 823 823 824 825 825 826 827 829 830 830 831 831 831 832 832 833 834 834 835 835 835 835 835 836 836 837 838 839 839 840 840 841 842 842 843 843 844 844 844 844 845 845 846 847 848 848
797 799 800 802 804 805 807 808 809 810 811 812 813 814 814 815 815 816 816 817 818 818 819 819 819 820 821 821 822 822 823 822 822 822 823 823 823 822 822 822 823 823 824 825 825 826 828 829 829 830 830 830 831 831 832 833 833 834 834 833 834 834 834 835 836 837 837 838 838 839 840 840 841 842 842 842 843 843 843 843 844 845 846 846 847
797 799 801 802 803 805 806 807 809 810 811 812 813 814 814 815 815 816 817 818 818 819 819 819 820 820 821 821 821 822 823 823 822 822 822 822 822 821 821 821 822 822 823 824 824 825 826 827 828 828 829 830 830 830 831 831 832 833 832 832 832 832 833 833 834 835 836 836 837 838 838 839 840 840 840 841 841 842 842 842 842 843 844 845 845
797 798 800 802 803 805 805 807 808 810 811 812 813 814 814 815 816 816 817 818 818 819 820 820 820 821 821 821 822 822 823 823 822 822 822 821 821 821 821 821 821 821 822 823 824 824 825 826 826 827 828 828 829 829 830 830 831 832 831 831 831 831 831 832 833 834 834 835 835 836 837 837 838 839 839 839 840 841 841 841 841 842 842 843 843
796 797 799 801 803 804 805 806 808 809 811 812 813 813 814 815 815 816 817 818 819 819 820 820 821 821 822 822 822 823 823 823 823 822 822 821 821 821 821 821 821 821 822 822 822 823 824 824 825 826 826 827 828 828 828 829 830 830 831 831 831 831 831 831 831 832 832 833 834 834 835 836 837 837 837 838 838 839 839 840 840 840 841 841 841
795 796 798 800 801 803 804 805 807 808 810 811 812 813 813 814 815 816 817 818 819 820 820 821 822 822 823 823 823 823 823 823 823 822 822 822 821 821 821 821 821 821 822 822 822 823 823 823 823 824 825 825 826 827 828 829 829 829 830 830 830 831 830 830 830 830 831 832 832 833 834 835 835 835 835 836 837 837 837 838 838 839 839 840 840
793 795 797 798 800 802 803 804 806 808 809 810 811 812 813 814 815 815 816 817 818 819 820 821 822 823 823 823 823 823 823 823 823 823 822 822 822 822 822 822 821 821 821 822 822 822 823 823 823 823 823 824 825 826 827 828 828 829 829 830 830 830 830 830 829 829 830 830 831 832 833 833 833 834 834 835 835 835 836 836 836 837 838 838 838
792 794 795 797 799 801 802 804 805 807 809 810 811 812 813 814 815 815 816 818 819 820 821 822 823 823 823 824 824 824 823 823 823 823 823 823 823 823 823 823 822 822 822 822 823 823 823 823 823 823 823 823 824 825 826 827 827 828 830 831 830 830 831 831 829 828 828 829 830 831 831 832 832 832 832 833 834 834 835 835 835 835 836 836 837
790 792 794 795 797 799 801 802 804 806 808 810 811 812 813 814 815 816 817 818 819 820 821 822 823 823 824 824 824 824 824 824 824 824 823 824 824 824 824 824 824 824 824 823 823 823 823 823 823 823 822 822 824 825 825 826 827 828 829 830 830 831 832 831 829 828 828 828 828 829 830 830 830 831 831 832 832 833 833 833 833 834 834 834 835
788 790 791 793 795 797 799 801 803 805 807 808 810 811 812 814 815 816 817 818 819 820 821 822 823 823 824 824 824 824 824 824 824 824 824 824 825 825 825 825 825 825 825 825 825 825 824 824 823 823 823 822 823 824 825 826 826 827 828 829 830 831 831 830 829 829 828 828 828 827 828 829 829 830 831 831 831 831 831 832 832 832 832 832 833
785 787 789 791 793 796 798 800 802 804 806 807 809 810 812 813 814 815 816 817 818 819 820 821 822 823 824 824 824 825 825 825 825 825 825 825 825 826 826 826 826 826 826 825 826 825 825 825 824 824 824 823 824 824 825 826 826 827 827 828 828 830 829 828 830 830 829 828 828 828 828 828 829 829 829 829 829 830 830 830 831 831 831 831 831
782 785 787 790 792 794 796 798 801 803 805 806 808 810 811 812 813 814 815 816 817 818 820 821 822 823 824 824 825 825 825 825 825 825 826 826 826 826 826 826 826 827 826 826 826 826 826 826 825 825 825 825 824 824 825 826 826 827 828 827 827 828 828 828 829 830 830 829 828 829 829 828 830 830 829 828 828 829 829 829 829 829 830 830 829
780 783 785 788 791 793 795 797 799 801 803 805 807 808 810 811 812 813 814 815 816 818 820 821 822 823 824 825 825 826 826 826 826 826 826 826 826 827 827 827 827 827 827 827 827 827 827 827 827 827 827 826 826 826 826 826 826 827 828 828 827 828 828 828 828 829 830 830 829 829 830 829 830 829 828 828 828 829 829 829 829 829 829 829 828
778 780 782 785 789 791 793 795 798 800 802 804 806 807 809 810 811 812 813 815 816 818 819 821 822 823 824 825 825 826 826 826 827 827 827 827 827 827 828 828 828 828 828 828 828 827 827 827 827 828 828 828 828 828 828 828 828 828 828 828 828 828 828 828 828 828 829 830 830 829 830 830 829 828 828 828 828 828 828 828 827 828 828 828 827
775 778 781 784 787 789 792 794 796 799 800 802 805 806 808 809 810 811 812 814 816 817 819 820 821 823 823 824 825 826 826 827 827 827 828 828 828 828 828 828 828 828 828 828 828 828 828 828 828 828 829 829 829 829 829 829 830 830 829 829 829 828 827 827 828 828 828 828 828 828 828 828 829 828 827 827 827 828 827 827 826 826 827 827 827
773 776 779 782 784 787 790 792 794 797 799 800 803 805 807 808 809 810 812 813 815 816 818 819 820 822 823 824 825 825 826 827 827 828 828 829 829 829 829 829 829 829 829 829 829 829 829 829 829 829 829 829 830 830 830 830 831 831 830 830 830 830 829 828 829 830 829 828 827 826 826 826 826 826 826 826 826 826 826 825 824 824 824 824 825
Wind_Speed
16 17 18 20 22 23 22 22 21 21 20 20 19 19 19 18 17 16 15 15 17 17 18 17 17 18 18 18 18 17 15 16 17 16 17 19 20 20 18 16 16 16 16 16 15 14 12 11 11 10 9 9 9 9 10 11 11 11 11 11 10 11 11 11 11 12 12 12 12 12 13 14 15 15 15 16 16 15 15 15 15 15 16 17 16
18 19 19 20 22 23 23 22 21 21 20 20 20 20 19 18 18 16 16 15 17 17 17 17 17 19 19 18 18 17 15 16 18 17 17 19 20 21 19 16 16 16 16 15 14 13 11 10 10 10 10 10 9 9 10 10 10 11 11 10 10 11 10 11 11 11 11 11 11 12 12 13 13 14 15 15 15 14 13 14 13 14 15 16 16
19 19 20 21 22 23 23 22 21 21 21 21 20 20 19 18 18 16 16 15 17 17 17 18 19 20 19 18 17 16 14 15 17 17 16 17 19 19 18 17 16 15 15 14 13 12 11 10 10 10 10 10 9 9 11 10 10 11 11 11 11 11 10 11 11 11 11 10 11 12 13 13 13 13 14 14 13 13 14 16 16 16 16 15 16
19 19 21 21 22 23 23 22 22 22 21 21 20 20 19 18 18 17 16 16 17 18 18 19 19 19 18 17 16 15 14 15 17 17 16 15 16 16 15 15 15 15 14 13 12 12 11 10 9 10 10 10 9 9 10 9 10 10 10 10 10 11 10 10 10 9 10 9 11 12 11 11 12 12 12 13 13 13 14 16 16 17 17 15 15
20 21 21 21 21 22 23 23 22 22 22 21 20 19 19 18 17 17 17 17 17 18 18 18 19 18 17 16 16 16 16 17 17 17 16 15 14 14 14 14 14 13 13 12 11 11 11 11 10 9 9 9 9 9 9 8 10 9 9 9 9 11 9 8 9 9 9 9 10 9 8 10 11 11 12 13 12 13 14 14 16 17 17 16 14
20 21 21 20 21 22 23 23 22 23 22 21 20 19 19 18 17 17 17 18 18 18 18 18 18 17 17 16 17 18 18 18 17 16 15 14 13 13 13 12 12 12 12 12 11 11 11 10 10 9 9 10 9 9 8 8 8 8 9 10 9 9 7 7 8 9 10 9 9 7 7 9 10 11 11 12 12 13 13 13 14 16 16 15 14
19 21 21 18 20 22 23 23 23 22 22 22 21 20 19 18 17 16 17 18 18 18 17 17 17 17 17 17 18 18 18 18 17 15 15 14 13 12 12 12 11 11 11 12 12 11 11 10 10 10 9 10 10 9 8 7 8 8 9 10 8 7 6 6 6 8 8 8 6 5 6 8 9 10 11 11 12 12 13 13 13 14 15 14 13
17 19 20 18 18 21 22 22 23 22 22 22 21 20 19 19 17 16 16 17 17 17 17 17 17 18 18 18 17 17 18 17 16 16 16 16 15 14 13 12 12 12 11 11 11 12 11 11 10 10 10 10 10 9 8 8 8 9 9 8 6 5 4 4 6 7 8 4 3 5 6 7 9 10 10 10 11 12 13 12 13 13 14 14 13
16 16 18 19 20 22 21 21 22 22 22 22 21 21 20 19 18 17 16 17 17 17 17 17 17 18 17 17 17 16 17 16 16 16 16 15 15 14 13 12 12 12 12 12 12 12 12 11 10 11 11 10 10 10 9 8 9 9 8 7 5 5 4 4 6 7 6 2 4 5 6 7 8 10 10 9 9 11 12 11 12 12 14 14 13
16 15 16 17 21 22 21 21 21 22 22 22 22 21 21 20 19 18 17 17 17 17 17 17 17 17 17 16 16 16 15 14 14 14 14 13 13 12 12 11 10 11 12 13 13 13 12 11 11 12 11 11 11 11 10 9 9 8 7 6 5 5 5 5 6 5 2 3 4 4 7 8 8 9 9 9 9 10 9 10 11 13 14 13 13
16 15 14 17 21 22 21 21 21 22 22 21 22 21 21 20 19 19 17 17 16 16 16 17 16 16 16 15 15 15 14 14 13 13 12 12 12 12 11 10 9 9 10 12 13 14 13 12 13 12 11 11 11 11 10 9 8 8 6 6 5 5 5 5 5 3 2 3 4 6 7 9 8 8 9 8 9 10 10 11 12 13 13 13 13
15 14 14 16 19 21 21 20 21 21 21 21 21 21 20 20 20 19 18 18 17 16 16 16 16 15 15 14 14 13 13 13 12 12 12 12 12 12 11 10 8 8 9 10 12 13 13 14 13 11 11 11 11 11 10 9 8 7 5 4 5 4 5 7 5 2 2 3 5 6 5 7 8 8 9 8 9 11 11 11 12 12 12 13 13
15 15 14 15 17 19 20 20 21 20 20 20 20 21 20 20 19 19 18 18 17 17 16 15 15 15 14 13 13 13 13 12 12 12 12 12 11 11 11 9 8 8 8 10 12 13 14 14 12 11 11 11 11 12 11 10 9 7 6 4 4 5 7 8 4 2 3 4 4 5 5 6 7 8 8 8 9 10 10 11 11 12 12 13 12
16 15 14 15 15 18 20 20 20 20 20 19 20 20 20 19 19 19 18 18 17 16 16 15 15 14 14 13 12 13 13 12 12 12 12 11 10 10 10 9 8 7 8 10 12 12 14 13 11 10 10 11 12 12 11 10 7 6 4 2 2 4 8 7 3 3 3 3 4 3 5 5 7 9 8 8 9 9 10 10 11 11 12 13 12
16 15 14 15 15 16 18 18 18 19 19 19 19 19 19 19 19 18 18 17 16 16 15 15 14 14 13 12 12 12 13 13 12 12 12 11 10 9 10 10 9 8 7 11 12 11 12 11 10 10 10 12 12 11 10 7 5 2 2 2 1 3 8 6 2 3 3 3 3 3 5 5 7 8 7 7 8 8 9 10 11 11 11 12 12
15 15 14 15 16 15 15 17 18 18 19 18 17 17 18 18 18 18 17 16 15 15 15 14 14 14 13 12 12 12 12 12 12 12 12 11 10 9 10 10 9 8 7 11 13 11 11 10 10 10 10 11 11 10 8 5 3 2 4 2 2 3 8 6 2 3 3 3 4 3 4 5 8 8 6 6 7 8 8 9 10 10 11 12 12
15 14 14 15 15 14 14 15 17 17 18 18 17 17 16 16 17 18 17 15 14 14 13 13 13 14 14 12 11 11 11 12 12 12 11 11 11 10 10 10 10 9 7 9 12 12 11 10 10 9 9 11 10 8 6 4 2 3 4 3 1 4 8 7 3 3 3 3 4 3 5 6 8 8 6 6 7 8 8 8 9 10 10 10 11
14 13 14 14 14 14 13 14 15 16 17 18 19 18 17 18 19 18 17 15 14 13 13 12 12 12 12 12 11 11 11 11 12 12 12 11 11 11 10 10 9 9 8 8 10 11 11 10 10 9 10 11 9 6 5 2 1 3 4 4 1 4 7 6 4 3 3 3 3 4 4 6 8 8 6 6 7 7 7 8 8 9 9 9 10
13 13 13 13 13 12 13 13 13 14 16 16 18 19 19 19 19 18 17 16 15 14 13 12 11 11 11 11 10 10 10 10 11 12 11 11 11 10 10 9 9 9 8 8 8 10 10 10 9 9 11 11 8 6 4 3 1 2 4 4 2 3 6 5 4 3 3 2 2 3 3 6 8 8 6 6 7 7 7 7 8 8 8 9 9
13 12 12 11 11 12 12 12 12 12 14 14 16 18 18 17 17 17 18 17 17 16 15 14 13 11 10 10 10 10 9 9 10 10 10 10 10 9 10 9 9 9 9 8 8 9 9 9 9 9 10 10 9 7 6 5 3 2 3 3 3 3 5 4 4 4 3 2 2 2 3 6 9 7 6 6 7 7 7 7 8 7 8 8 8
12 11 11 11 11 11 11 11 11 10 10 12 14 15 16 17 16 17 18 18 18 17 16 15 13 11 11 11 10 10 9 9 9 10 10 10 9 9 9 9 9 8 8 8 8 9 9 10 10 10 10 10 9 8 7 6 4 3 2 3 3 3 6 5 5 4 3 2 3 2 3 8 8 6 6 7 7 6 7 7 7 7 7 7 7
13 12 10 10 10 10 10 10 10 11 9 10 12 13 15 16 16 16 17 18 17 15 14 13 11 10 10 10 10 9 9 9 9 9 10 9 9 9 9 9 8 8 7 7 7 8 9 10 10 10 10 10 9 7 6 6 5 4 3 4 3 5 6 6 5 4 4 3 3 3 3 8 7 6 7 7 6 6 7 7 7 7 6 6 6
14 12 12 10 10 10 10 10 10 11 10 9 10 11 13 14 14 13 14 16 15 14 12 11 11 10 9 9 9 8 8 8 8 10 10 9 9 8 8 8 8 7 8 7 7 7 8 9 9 9 9 9 8 7 7 6 5 5 4 4 4 5 6 6 5 5 4 3 3 3 3 8 6 5 7 6 6 6 6 6 7 7 6 6 6
14 13 13 11 10 10 9 9 10 10 11 10 10 10 11 13 13 12 12 13 13 12 11 10 10 10 10 10 8 7 7 6 7 9 9 8 9 9 8 8 8 7 8 8 8 8 8 9 10 9 8 8 8 8 8 7 6 4 4 5 5 5 6 7 5 5 4 3 3 3 3 8 6 5 6 6 6 6 5 5 7 6 6 6 6
15 14 13 12 11 11 10 9 10 10 10 10 10 10 10 10 11 11 11 11 11 12 11 11 10 9 10 9 8 7 6 6 6 7 7 7 8 9 9 8 8 8 8 8 8 8 8 9 10 10 9 9 9 8 7 7 7 5 4 5 5 5 7 7 5 5 4 4 4 4 3 7 7 5 5 6 6 5 4 5 6 5 7 6 6
15 14 13 13 12 11 10 9 9 9 9 9 9 10 10 9 9 9 10 10 10 11 11 10 10 10 9 8 8 8 6 6 6 7 7 8 8 8 9 8 8 8 9 9 8 8 8 8 9 9 9 9 9 8 7 6 6 6 5 5 5 5 7 7 6 5 4 4 4 4 3 6 7 6 5 6 5 5 5 5 5 4 5 7 6
14 13 13 13 12 11 10 10 9 9 8 8 8 9 9 9 9 9 9 9 9 9 10 10 10 10 10 9 9 8 7 6 6 7 8 9 9 8 8 8 9 9 9 8 8 8 8 7 8 8 8 8 8 9 8 7 6 6 6 5 5 6 7 8 6 5 5 5 5 4 3 5 7 7 5 5 5 5 6 5 5 3 4 6 6
13 13 13 12 11 11 10 9 9 9 8 7 7 7 7 8 9 9 9 8 8 8 9 9 9 10 11 10 9 8 8 7 7 9 10 9 8 7 8 8 8 8 8 8 8 8 7 7 7 7 8 8 9 9 10 9 7 7 7 6 6 7 8 8 7 6 5 5 5 4 3 4 6 7 6 6 5 5 6 5 5 4 4 4 5
13 13 12 11 10 10 10 9 8 8 7 7 7 6 7 8 8 8 7 7 8 7 7 8 8 10 11 10 8 8 8 8 9 10 9 7 6 7 9 9 9 8 8 8 8 7 7 7 7 7 8 8 9 10 10 11 9 8 8 8 8 7 8 8 7 6 5 5 4 4 5 4 5 7 7 7 6 5 5 5 5 5 5 4 4
14 14 12 10 10 9 9 8 7 6 6 5 5 5 5 6 7 7 7 7 6 6 6 7 8 8 8 9 9 9 9 10 12 11 7 6 7 8 8 8 9 10 10 8 7 7 7 6 6 7 9 9 9 10 11 12 11 10 9 9 9 8 7 8 8 7 6 5 5 5 6 5 5 6 8 8 7 6 5 5 5 5 5 3 3
14 14 12 10 9 9 8 8 7 6 5 4 4 3 3 4 5 5 6 6 5 6 6 6 7 7 8 11 11 11 12 12 13 11 8 7 7 7 6 7 8 9 11 10 8 8 8 7 6 7 8 9 9 9 10 12 13 12 10 10 10 9 8 8 8 8 7 6 6 6 7 7 6 6 7 8 9 8 6 5 6 6 5 4 2
14 14 12 10 10 9 8 8 7 6 5 4 4 3 3 3 3 3 4 5 5 5 6 6 6 6 8 10 9 7 9 12 12 9 6 7 9 9 8 8 8 8 12 13 10 9 8 8 7 8 8 8 10 10 9 10 12 12 11 11 11 11 10 9 9 9 8 7 7 6 7 7 8 8 8 8 9 10 8 7 6 6 5 4 3
14 14 12 12 11 10 9 8 7 6 5 5 4 3 3 3 3 3 3 4 4 4 5 5 5 5 5 5 5 4 5 9 10 8 5 6 10 11 8 8 9 12 15 15 12 10 9 8 8 10 10 10 11 11 9 9 11 11 11 11 12 12 12 11 10 10 9 8 8 7 7 8 8 9 9 8 9 11 11 9 7 7 7 5 5
13 13 13 13 11 9 8 8 7 7 6 5 4 3 3 3 3 3 3 3 2 3 4 4 4 4 4 4 4 5 7 7 6 6 5 6 8 8 7 7 9 12 15 15 14 11 11 11 10 11 12 11 12 12 10 9 10 10 11 11 12 12 12 12 11 11 10 10 9 9 8 8 9 9 9 10 9 10 11 11 9 8 8 7 6
12 13 13 13 11 9 9 8 8 7 5 4 4 4 4 3 3 3 3 3 2 2 3 4 3 4 4 4 3 4 7 7 6 5 6 6 7 7 6 7 9 10 11 13 15 13 12 12 11 11 12 12 12 12 12 10 8 9 10 10 11 11 12 12 12 12 12 11 10 10 10 9 9 9 9 9 10 10 10 10 10 10 10 8 8
11 13 13 13 11 9 9 8 8 7 6 5 5 4 3 3 3 3 4 4 2 2 2 3 3 3 4 4 4 3 2 5 6 8 8 7 7 6 7 8 8 8 8 11 15 15 13 12 11 10 11 12 12 12 13 13 10 8 8 8 10 11 12 13 13 13 13 12 11 11 11 10 10 9 9 9 10 11 10 10 10 11 11 10 10
10 12 12 12 12 11 10 9 8 8 7 7 6 5 5 4 4 5 5 4 3 2 3 3 3 4 4 5 5 4 3 4 4 7 8 8 7 5 6 7 7 7 7 9 13 14 12 12 12 11 10 11 11 11 11 12 12 11 9 9 9 10 12 13 13 13 13 13 12 12 11 11 11 11 11 10 10 10 10 10 10 10 12 12 12
10 12 11 11 11 11 10 9 9 8 8 8 8 7 7 6 5 5 5 4 3 3 3 4 4 4 3 4 4 4 3 3 3 3 5 6 6 6 5 5 6 6 6 7 10 12 13 12 12 12 11 10 10 10 10 9 10 11 11 11 10 9 10 12 12 12 13 13 13 13 12 12 11 11 11 11 10 10 10 11 11 11 12 13 14
12 12 11 10 11 11 11 10 9 9 9 9 9 8 7 6 5 5 5 4 4 4 4 4 4 4 4 4 3 3 3 3 3 3 3 4 4 5 5 5 5 5 5 6 7 9 12 13 13 11 11 11 10 9 9 9 8 9 10 11 11 11 10 10 10 12 13 13 13 13 13 12 12 12 12 11 11 10 11 11 11 12 13 13 13
14 15 13 12 11 11 11 11 10 10 10 10 9 8 7 6 5 5 4 4 4 5 4 4 5 4 4 4 3 3 3 3 3 3 3 3 2 3 4 4 5 5 6 6 6 7 9 12 13 12 11 11 10 10 10 10 9 10 10 11 13 13 11 10 11 12 13 13 13 13 13 13 13 13 12 12 12 11 11 11 11 12 13 13 13
14 16 15 14 13 12 12 12 12 12 11 10 9 8 7 6 5 5 5 5 6 6 5 5 5 5 5 4 4 4 3 3 3 3 3 2 1 1 1 2 3 5 5 5 5 6 7 9 10 12 13 13 12 12 12 9 7 8 10 10 12 14 13 11 12 13 14 13 13 14 14 13 13 12 12 12 12 12 12 12 11 12 12 12 13
15 16 16 15 14 13 13 13 13 13 11 10 9 7 6 5 5 5 5 6 6 5 6 6 5 5 5 5 5 4 4 3 3 3 3 2 2 2 2 2 1 1 2 3 3 4 5 6 7 10 12 12 12 13 12 9 6 5 5 4 6 11 13 11 11 12 13 13 13 14 14 14 14 13 12 12 12 13 13 13 13 12 12 12 12
16 17 16 16 16 14 13 13 14 14 12 10 9 7 6 5 5 6 5 5 5 5 6 6 6 6 6 5 5 5 4 4 4 4 4 3 3 3 4 4 4 4 3 3 3 2 2 3 4 6 7 8 8 9 11 10 7 4 2 2 1 4 7 9 11 9 8 11 12 13 13 13 14 14 13 12 12 13 13 13 13 13 13 12 12
16 17 17 17 17 15 15 14 15 14 12 12 9 8 8 7 6 7 6 5 6 6 6 6 6 6 6 5 5 5 5 5 5 5 5 4 4 4 4 4 5 4 4 4 5 4 3 3 2 2 3 5 5 6 8 9 8 6 3 2 2 2 1 4 9 8 5 7 9 11 12 12 13 13 12 13 13 13 13 13 13 13 13 13 13
17 18 19 19 18 17 16 15 15 15 13 13 12 10 11 10 8 8 7 6 6 7 6 7 6 6 6 5 6 6 6 6 6 6 6 5 5 4 4 4 4 3 3 3 3 3 3 3 3 2 1 2 3 4 5 4 6 8 5 2 2 2 1 2 4 5 5 7 7 9 9 9 10 11 12 13 13 12 12 13 14 13 14 14 14
20 20 20 21 20 18 17 17 15 15 14 15 15 12 11 12 11 10 9 8 7 7 6 7 6 6 6 6 7 7 7 7 6 6 6 5 5 5 4 4 4 3 3 2 3 3 3 3 2 2 2 1 2 3 3 3 2 4 5 3 2 1 2 3 2 2 3 5 6 9 7 3 4 7 9 10 10 10 10 11 12 12 13 14 15
21 20 19 21 21 18 18 18 16 15 15 16 16 13 12 12 12 11 10 9 8 7 7 7 7 6 7 7 7 7 7 7 6 6 5 5 5 5 5 5 4 4 4 3 3 3 3 3 3 3 3 2 0 2 3 2 1 1 0 2 2 1 1 1 1 1 2 3 7 10 8 6 5 4 5 6 6 6 6 7 8 10 11 12 13
20 19 20 21 21 18 18 19 17 15 16 18 18 15 13 13 12 10 9 8 7 8 8 8 7 7 7 7 7 7 7 6 6 5 5 5 5 6 6 6 6 6 5 5 5 4 4 4 5 4 3 3 2 1 2 1 1 2 2 3 2 2 3 0 1 1 2 2 5 6 5 8 8 6 5 5 5 4 4 5 6 8 8 9 10
20 20 21 22 21 19 19 19 18 16 17 19 19 16 13 13 12 11 10 8 7 8 9 8 8 8 7 7 7 7 7 6 6 6 6 7 7 8 8 7 7 6 6 6 6 5 5 5 5 5 4 4 4 2 1 1 1 1 1 2 2 2 3 1 1 2 3 2 2 2 0 1 5 6 5 5 6 6 6 7 8 8 9 10 10
20 19 19 21 21 19 20 20 20 17 17 21 21 17 15 13 13 12 11 10 8 7 8 9 9 8 8 8 7 7 7 7 7 7 8 8 8 8 8 7 7 6 6 7 6 6 6 6 6 6 6 5 5 4 3 2 1 1 1 2 3 3 4 3 2 4 5 5 4 3 3 2 3 5 7 7 9 9 10 11 10 11 12 13 12
19 19 19 20 21 20 21 21 21 19 18 21 22 19 17 15 13 13 13 12 10 8 8 9 9 9 8 8 7 7 7 7 8 8 8 8 8 7 7 7 7 6 6 6 6 6 6 6 6 6 6 6 5 5 5 4 3 2 2 1 1 1 2 3 3 4 5 5 5 5 6 6 6 7 7 7 8 10 11 13 13 12 12 13 13
Wind_Direction
147 145 143 151 149 149 148 148 150 146 143 140 137 134 133 133 135 139 145 150 155 159 160 160 157 156 152 151 151 154 155 151 150 143 139 141 151 153 152 152 147 145 143 142 140 137 131 126 123 122 122 118 117 122 120 114 118 123 127 128 127 124 121 120 118 116 114 112 109 107 106 108 109 110 110 108 106 102 98 93 90 91 88 86 83
144 144 144 150 148 149 148 150 151 147 145 141 138 135 134 133 133 136 141 148 151 153 155 156 155 155 152 154 156 158 155 151 153 146 142 142 150 154 154 155 151 148 144 144 143 138 133 129 128 128 125 119 121 125 125 119 121 130 132 131 128 125 125 124 120 118 116 115 115 112 109 108 108 108 109 108 106 102 102 100 96 93 91 91 89
140 142 142 148 147 149 149 152 151 148 147 142 140 137 137 134 133 135 140 146 148 150 152 155 156 155 155 158 159 159 152 151 156 154 149 145 149 154 156 154 151 152 148 147 144 140 137 133 130 128 122 120 122 122 127 124 131 142 141 137 133 130 132 132 128 124 121 123 119 111 108 106 105 105 106 105 100 102 112 113 104 96 95 94 94
140 139 140 146 146 149 151 153 152 150 149 144 142 140 138 134 133 135 140 145 147 150 152 155 155 155 157 158 155 153 149 147 153 154 149 145 147 152 155 153 151 155 150 146 144 142 140 134 127 124 121 123 122 124 129 131 144 151 152 149 144 142 143 141 132 122 123 122 107 101 105 105 103 102 103 100 96 99 107 108 102 99 97 91 91
139 138 138 145 146 149 152 155 154 153 150 145 144 142 139 135 133 134 140 145 148 151 152 154 154 156 157 154 148 145 144 141 142 142 141 142 145 147 150 150 151 152 145 143 146 145 138 132 129 128 125 125 125 127 127 138 155 154 154 152 149 150 153 150 132 126 133 120 99 98 108 108 106 102 101 99 96 95 96 98 96 97 96 91 89
137 137 138 146 148 150 153 156 157 154 151 146 146 144 141 135 132 134 140 146 149 151 151 151 151 153 151 148 145 143 143 139 137 138 139 142 143 143 144 148 152 150 146 149 152 149 140 136 136 134 130 129 130 129 127 138 151 151 153 153 155 152 155 157 145 151 141 101 86 102 112 108 107 105 103 101 97 95 94 93 91 94 94 90 87
133 137 138 145 149 152 153 157 158 156 152 148 148 146 142 137 134 135 140 145 148 149 148 147 149 149 148 146 145 145 145 142 141 143 145 143 141 142 146 151 156 154 153 155 155 154 148 144 142 138 135 135 133 131 132 134 142 152 154 153 157 153 159 169 176 168 124 78 84 114 111 108 109 106 104 101 99 98 95 94 94 95 95 90 86
132 138 140 145 150 153 152 156 159 158 154 149 149 148 145 140 138 137 140 144 145 146 145 145 146 147 147 147 146 147 147 146 147 149 148 144 145 147 150 153 158 159 155 156 158 156 150 148 146 142 140 141 138 135 135 134 142 152 151 148 154 168 182 187 181 141 92 77 120 110 105 106 108 108 105 103 101 100 96 95 95 94 94 91 86
133 137 143 148 152 153 152 156 159 160 156 151 150 150 148 144 141 139 141 144 144 143 143 144 146 147 148 149 149 151 150 150 150 150 148 148 151 151 153 155 158 159 156 158 158 153 151 152 149 146 148 144 139 138 139 141 150 156 156 154 160 176 182 180 159 116 72 104 119 103 112 106 107 109 108 108 103 100 98 97 96 93 93 92 91
132 136 142 148 153 153 153 155 159 161 159 154 152 152 151 148 144 142 143 145 147 146 146 148 149 151 152 153 153 153 152 151 151 150 149 152 157 157 159 159 158 159 159 159 155 152 152 156 153 150 149 145 143 143 144 147 153 160 161 163 174 176 177 171 141 105 73 119 102 107 117 109 107 107 108 106 100 102 110 111 103 96 93 93 92
131 135 138 146 152 154 156 156 159 162 162 159 154 154 153 150 148 146 146 148 150 151 153 154 154 156 156 158 157 154 153 153 153 151 151 154 160 163 165 163 158 155 157 155 152 152 154 161 159 154 151 148 149 148 150 151 153 157 156 169 182 186 183 150 119 119 123 110 98 104 105 101 101 107 108 100 97 99 102 102 99 95 93 92 90
130 131 135 142 150 155 157 158 158 161 164 163 159 156 154 154 152 149 150 151 153 155 158 159 159 160 159 159 159 159 158 157 156 154 151 154 159 163 167 165 159 153 154 153 151 153 160 167 162 157 157 154 154 154 154 149 145 142 135 151 163 169 155 118 108 158 132 110 106 104 99 96 100 109 106 95 95 95 94 95 96 95 93 92 90
130 130 135 138 149 156 158 160 159 160 164 166 163 159 156 157 157 154 154 155 157 158 159 162 163 163 162 161 162 164 164 163 159 157 153 153 155 158 166 168 163 158 155 151 150 158 167 170 163 157 158 161 160 154 149 142 135 126 113 111 128 141 132 110 110 160 127 116 110 103 102 101 105 107 102 97 95 95 99 98 98 95 93 93 90
130 130 135 138 149 158 160 163 163 162 163 166 167 163 160 160 161 159 157 159 160 159 160 162 164 164 165 165 166 169 170 168 163 160 156 154 155 156 166 170 168 163 155 151 153 166 175 174 164 157 159 163 162 153 147 142 132 117 94 71 119 142 130 114 115 143 124 118 115 106 107 112 115 108 105 104 97 97 101 101 101 98 97 96 91
130 130 134 140 146 156 162 164 167 167 162 164 169 168 164 165 166 163 162 162 161 161 162 163 165 166 166 169 171 174 175 172 168 165 158 154 158 160 165 170 171 170 162 154 159 171 180 182 169 161 167 166 164 157 153 147 127 88 26 343 259 165 141 136 125 130 132 129 119 110 112 123 126 115 112 110 104 104 107 107 104 101 101 99 95
128 131 133 139 144 153 160 162 169 171 167 162 165 171 171 170 170 169 167 164 164 165 164 165 168 169 171 173 172 175 179 174 173 172 163 156 161 166 167 171 173 176 173 164 168 173 174 182 177 175 179 169 162 159 158 151 118 31 8 345 254 177 147 150 150 128 134 132 125 120 117 127 129 121 117 116 113 110 110 110 106 105 103 101 99
128 132 134 139 143 149 155 160 168 172 171 161 159 172 173 173 177 174 170 167 168 168 167 168 171 174 176 177 173 174 181 176 174 177 169 159 163 172 171 171 173 176 177 174 178 179 177 184 187 188 177 164 163 164 161 150 87 18 7 3 259 182 147 134 134 139 120 118 126 116 119 139 136 126 122 116 116 113 110 111 109 109 105 104 103
132 134 136 140 143 148 150 155 164 169 170 163 164 172 171 176 182 176 171 172 175 172 170 173 176 178 178 179 173 173 178 175 174 177 174 165 164 172 171 171 174 176 179 182 185 186 188 192 191 183 171 171 180 183 169 158 40 13 2 5 353 189 157 129 129 147 119 116 126 107 134 167 145 130 129 119 119 118 115 115 112 111 108 106 103
135 135 139 141 143 146 148 153 159 165 165 163 169 174 176 181 182 178 176 175 177 177 177 178 182 182 181 182 177 174 174 172 175 177 177 171 164 168 171 173 175 177 181 187 191 190 192 196 192 179 174 183 197 203 196 215 252 346 354 359 360 179 166 147 154 158 134 130 117 112 162 174 143 134 135 121 122 124 121 118 115 115 111 107 104
136 138 141 140 144 144 148 153 153 161 161 160 170 174 182 186 182 184 183 180 180 180 181 183 185 184 181 183 183 177 172 175 179 179 181 176 168 169 168 173 177 180 184 185 191 193 194 194 192 188 189 196 206 213 217 223 224 282 333 344 342 166 168 175 177 164 150 148 114 136 186 152 136 139 138 128 131 133 128 121 119 120 115 110 107
141 142 141 139 143 146 149 151 148 154 155 158 166 172 185 186 183 189 189 186 186 184 184 186 185 183 182 185 184 178 176 181 184 185 187 179 175 176 169 171 175 180 188 186 187 193 195 194 194 199 204 209 214 218 228 227 221 250 285 315 312 184 180 181 178 169 165 154 128 194 196 142 139 145 139 138 140 136 130 125 125 122 118 116 111
147 145 144 143 142 148 152 151 148 147 150 155 160 170 184 183 181 189 192 190 189 187 184 186 186 183 185 188 187 189 190 190 189 191 191 179 180 184 174 173 174 178 187 191 194 194 194 194 196 201 209 217 219 217 227 231 231 241 260 286 265 195 187 178 176 175 172 153 156 235 179 140 143 147 143 146 144 137 135 132 130 128 126 124 116
152 150 150 154 151 156 156 153 150 146 150 151 154 165 173 176 176 181 190 192 192 189 183 188 192 187 189 193 196 205 205 198 193 191 188 179 184 190 181 179 177 178 185 194 200 198 197 199 201 201 204 213 218 217 219 224 232 238 248 253 221 200 192 182 180 177 179 158 176 248 162 142 143 144 150 153 148 142 142 138 135 135 135 132 123
158 157 156 161 162 166 161 157 157 153 154 151 155 161 162 168 172 174 182 188 191 191 190 197 203 198 196 197 200 208 213 214 202 193 186 175 184 191 188 188 186 185 189 193 200 203 203 203 205 202 197 202 212 222 223 221 224 225 233 232 215 210 196 188 188 179 178 156 185 255 161 147 148 152 159 157 153 152 149 140 142 143 141 138 133
160 161 161 165 168 171 166 162 163 164 162 155 155 156 157 160 162 170 177 181 188 194 197 200 206 208 204 199 198 203 214 222 206 192 185 180 190 191 190 192 193 198 201 199 202 205 202 197 198 198 201 209 214 219 221 222 222 220 228 226 220 215 198 192 193 185 177 169 214 245 163 150 153 160 163 159 160 161 158 145 151 156 149 148 143
164 166 165 168 170 172 169 169 171 170 169 164 158 153 155 156 159 170 174 180 185 190 199 203 204 206 206 200 193 195 206 217 204 195 195 195 196 192 192 193 195 203 208 210 209 206 204 201 199 197 205 216 220 220 220 220 220 221 225 225 222 216 205 197 193 192 184 180 224 243 170 157 157 163 169 168 170 168 167 158 161 171 158 156 152
170 168 166 168 170 174 174 174 175 174 174 174 166 155 156 160 167 173 176 183 186 189 200 207 206 202 204 203 193 192 200 211 208 207 209 205 202 199 199 200 201 205 207 212 217 215 215 215 212 204 201 209 218 223 223 219 218 221 222 223 222 217 211 204 198 198 192 186 226 249 196 171 160 163 176 180 180 173 173 170 171 181 159 154 157
172 168 167 170 174 178 178 177 178 179 183 187 181 165 160 164 169 175 180 185 187 194 199 201 204 201 203 204 196 193 200 208 210 214 215 209 207 206 206 205 205 209 207 211 218 222 225 224 218 209 200 205 214 222 225 222 220 221 220 221 220 219 214 210 208 204 200 194 217 248 227 192 172 166 176 188 185 174 178 175 172 185 171 152 157
169 168 173 175 179 182 182 184 184 187 191 195 195 182 172 169 169 176 183 183 184 192 194 195 200 202 203 204 200 199 204 210 215 218 217 209 208 213 216 211 206 209 208 212 218 216 221 225 221 212 201 204 213 220 226 224 220 219 220 223 220 220 217 212 212 209 209 202 206 244 249 222 195 177 175 189 193 184 185 179 177 190 184 161 145
169 169 175 178 180 181 181 182 180 184 185 188 196 190 186 182 175 176 179 181 183 181 180 187 197 204 205 205 205 207 207 211 219 221 215 209 217 224 226 220 216 218 216 216 221 218 219 218 217 216 207 206 214 220 224 224 222 220 220 222 220 217 215 212 213 212 214 214 207 230 246 235 220 199 184 186 191 199 195 185 191 193 188 175 139
169 170 173 174 174 174 171 171 169 168 172 180 186 186 194 200 190 183 175 176 181 172 169 183 195 197 201 206 207 210 211 212 221 225 223 219 224 230 226 223 226 227 224 219 221 222 218 210 211 222 217 209 212 218 224 225 222 220 219 221 222 219 214 214 216 216 218 224 218 221 240 239 230 218 203 191 186 196 204 200 201 192 190 189 173
169 170 170 166 168 171 165 163 164 165 171 177 174 180 191 202 207 201 179 167 168 172 168 173 188 190 201 210 205 209 222 227 232 233 231 230 235 239 230 225 224 227 227 220 217 220 214 206 207 218 216 203 204 211 221 226 223 221 219 217 221 223 218 216 220 222 223 228 229 225 232 236 236 231 221 208 191 191 198 207 206 195 200 199 205
164 167 165 161 166 168 164 161 167 175 180 176 167 177 190 192 193 196 185 166 168 184 173 166 171 165 178 195 182 184 211 227 242 243 230 230 239 243 237 231 227 232 235 225 218 217 212 207 203 204 203 199 201 204 210 222 225 224 223 221 221 224 224 222 224 228 228 230 234 233 229 228 233 234 229 224 206 195 197 206 207 199 208 208 200
158 162 162 161 164 165 165 167 177 183 181 175 166 174 183 184 183 179 177 168 183 192 178 179 185 179 191 198 189 216 218 212 235 247 229 226 239 241 233 234 231 233 237 228 218 212 210 207 202 199 196 197 200 198 200 213 225 226 225 226 225 226 229 229 228 229 231 233 235 237 234 227 226 229 228 229 223 210 204 207 209 206 211 211 202
156 159 160 162 166 166 168 172 183 186 178 175 175 177 173 173 176 165 152 141 157 169 160 181 198 198 210 209 189 225 238 221 220 234 225 222 238 241 232 236 231 227 229 224 216 210 209 207 205 201 193 196 198 195 198 207 222 225 222 226 229 229 230 232 232 231 232 232 236 237 235 230 227 225 222 226 228 225 216 212 213 211 211 210 209
158 159 160 164 168 171 175 176 182 183 179 181 177 171 161 156 150 134 125 118 126 135 128 149 160 158 157 156 157 160 226 221 223 232 230 224 230 237 235 233 228 222 218 213 210 209 211 210 210 207 197 199 200 196 200 207 218 225 225 226 231 234 235 234 233 234 234 233 235 235 234 232 229 228 226 225 227 231 229 223 222 220 218 215 215
163 164 165 168 170 174 179 179 181 181 181 178 171 168 159 149 135 123 120 116 117 119 117 119 120 134 135 127 130 131 160 199 218 232 236 234 225 228 235 230 222 218 212 208 210 210 212 212 212 210 205 204 202 198 202 208 216 225 234 234 234 237 240 241 238 238 236 233 235 234 233 233 230 228 231 231 229 234 239 234 231 230 229 225 222
169 171 171 171 171 173 177 178 180 181 180 174 168 164 154 143 133 124 120 119 117 113 117 124 120 118 116 112 115 126 148 170 185 215 236 239 227 227 238 231 219 213 208 210 214 214 214 214 214 212 211 213 210 207 209 213 217 224 234 238 240 242 244 244 242 241 238 231 231 232 231 232 231 230 231 234 233 231 237 240 238 237 238 236 230
178 177 175 174 172 170 173 174 177 179 177 173 166 160 155 148 142 138 129 127 128 126 127 123 116 106 100 99 106 125 135 143 166 198 228 239 234 234 242 242 233 219 207 211 214 214 214 214 215 215 216 220 221 218 219 224 228 229 234 240 244 248 250 248 242 237 236 233 229 229 229 229 229 230 229 232 234 231 231 234 233 230 235 241 237
187 187 182 178 176 173 172 173 177 178 175 173 172 170 168 163 158 156 145 140 133 125 123 114 106 101 101 105 108 121 136 147 170 185 206 228 237 236 239 240 240 231 220 224 222 212 214 217 217 217 220 221 219 221 225 230 238 242 244 247 249 250 250 249 245 236 231 232 232 231 230 230 228 228 229 229 232 233 230 228 227 224 229 239 242
189 191 188 185 184 182 178 176 179 181 179 179 179 180 178 171 169 164 150 145 140 131 124 112 104 99 97 102 102 110 127 141 158 172 186 200 201 208 216 222 228 230 228 228 225 217 218 222 219 218 224 223 216 219 224 226 237 246 250 253 253 255 257 250 243 240 234 231 233 234 233 233 232 228 229 231 232 234 233 230 229 230 230 233 240
188 190 189 188 188 188 185 180 180 184 186 185 182 181 180 174 166 159 148 141 137 134 127 118 111 106 101 98 98 103 116 126 132 146 159 162 152 120 103 98 115 173 195 183 196 209 212 216 215 219 226 229 227 223 218 213 219 235 248 264 262 258 264 265 251 240 236 233 232 234 234 235 236 231 228 229 231 233 235 234 233 234 234 233 235
188 189 189 188 187 189 188 184 183 184 187 190 187 179 173 163 151 146 141 136 129 120 118 119 119 114 109 103 102 105 107 118 125 131 138 133 125 112 101 81 74 77 81 95 101 118 150 175 205 219 219 218 224 224 218 216 214 204 219 254 265 251 266 281 266 244 232 235 234 235 236 237 238 234 231 230 232 235 238 239 237 235 236 238 239
188 189 188 187 187 189 189 187 184 184 186 190 186 175 170 161 146 141 133 129 130 126 123 125 127 122 115 107 109 115 111 112 118 123 126 123 115 109 105 90 81 79 73 70 67 71 77 87 133 195 209 201 197 208 221 222 212 198 200 208 171 187 233 267 258 252 249 249 244 239 237 239 241 238 237 235 235 238 241 242 242 241 240 241 244
190 190 189 188 187 188 189 187 185 184 186 188 184 176 173 165 152 148 142 135 139 145 146 140 138 132 121 113 116 123 119 113 114 116 118 118 113 106 106 103 96 94 91 85 74 63 57 61 77 90 152 200 167 174 199 209 213 215 214 195 172 213 196 192 243 257 254 252 256 252 243 240 242 239 240 241 240 242 244 245 246 245 244 245 245
193 192 191 190 188 188 188 186 185 186 186 189 189 181 175 169 163 162 160 159 159 160 158 150 147 136 121 119 121 124 124 120 117 116 116 116 113 108 107 106 104 101 95 97 92 74 68 58 44 65 78 66 141 145 146 152 198 218 218 232 250 230 132 145 211 265 241 235 241 253 253 246 257 248 241 245 246 247 248 250 249 247 248 249 249
194 190 189 189 189 188 187 186 185 186 186 190 191 185 182 178 173 171 167 168 165 156 152 147 143 133 124 125 126 128 130 127 124 121 121 120 115 114 110 107 107 104 97 93 89 78 73 64 53 62 67 43 106 127 110 134 117 81 265 320 322 281 265 159 203 265 273 242 230 243 244 222 245 275 261 259 256 246 246 254 255 250 249 250 249
191 186 186 187 188 187 185 185 187 187 186 191 191 187 189 185 178 176 171 172 164 150 149 145 142 137 131 129 130 133 135 134 134 129 126 125 119 115 112 108 105 102 98 91 84 79 72 65 63 66 66 56 59 95 85 81 42 49 35 14 13 273 258 300 34 289 283 285 236 238 225 214 240 263 256 259 267 271 272 269 268 262 255 250 247
189 187 187 185 185 185 185 184 188 189 188 193 193 190 194 190 182 178 172 172 163 152 155 151 148 146 140 137 133 134 137 135 135 131 126 124 120 115 111 106 101 95 94 91 85 82 76 71 69 64 67 71 71 80 92 52 7 11 347 338 334 276 242 184 27 305 274 275 253 241 183 251 274 264 245 251 262 274 274 265 269 268 263 259 252
187 187 185 183 183 183 185 186 189 191 191 195 195 192 195 195 189 182 175 173 168 164 164 158 157 157 152 149 144 140 139 136 135 133 128 125 121 117 112 105 100 95 95 96 93 89 84 79 78 75 74 75 75 75 75 78 75 25 309 293 284 279 263 238 271 302 283 266 267 278 273 276 278 264 269 277 271 271 268 261 265 263 260 260 257
181 183 182 183 183 183 186 189 191 192 193 196 197 194 196 198 196 189 181 177 175 176 177 170 169 169 166 164 160 154 148 146 144 140 137 133 126 121 115 108 105 101 100 101 100 97 96 90 86 84 82 81 81 82 79 78 80 68 38 4 347 324 301 281 276 291 289 278 278 279 269 263 262 264 275 281 273 273 269 264 265 263 258 256 254